| time (UTC) | temp F | wind direction | speed knots | gust knots | rain 1hr in | rain 24hr in | rain mn in | humidity % | barometer mb |
| 20260906152727 | 54 | 42 | 0.0 | 0.0 | 0.00 | 0.00 | 0.00 | 88 | 1017.1 |
| 20260906152235 | 53 | 42 | 0.0 | 0.0 | 0.00 | 0.00 | 0.00 | 91 | 1017.2 |
| 20260906151721 | 52 | 42 | 0.0 | 0.0 | 0.00 | 0.00 | 0.00 | 91 | 1017.1 |
| 20260906151308 | 52 | 61 | 0.0 | 0.0 | 0.00 | 0.00 | 0.00 | 91 | 1017.1 |
| 20260906151236 | 52 | 61 | 0.0 | 0.0 | 0.00 | 0.00 | 0.00 | 91 | 1017.1 |
| 20260906150803 | 51 | 61 | 0.0 | 0.0 | 0.00 | 0.00 | 0.00 | 91 | 1017.2 |
| 20260906150731 | 51 | 61 | 0.0 | 0.0 | 0.00 | 0.00 | 0.00 | 91 | 1017.2 |
| 20260906150258 | 51 | 61 | 0.0 | 0.0 | 0.00 | 0.00 | 0.00 | 92 | 1017.1 |
| 20260906150226 | 51 | 61 | 0.0 | 0.0 | 0.00 | 0.00 | 0.00 | 92 | 1017.1 |
| 20260906145733 | 51 | 61 | 0.0 | 0.0 | 0.00 | 0.00 | 0.00 | 93 | 1017.2 |
| 20260906145301 | 51 | 61 | 0.0 | 0.0 | 0.00 | 0.00 | 0.00 | 95 | 1017.1 |
| 20260906145229 | 51 | 61 | 0.0 | 0.0 | 0.00 | 0.00 | 0.00 | 95 | 1017.1 |
| 20260906144755 | 50 | 61 | 0.0 | 0.0 | 0.00 | 0.00 | 0.00 | 95 | 1017.0 |
| 20260906144723 | 50 | 61 | 0.0 | 0.0 | 0.00 | 0.00 | 0.00 | 95 | 1017.0 |
| 20260906144230 | 49 | 61 | 0.0 | 0.0 | 0.00 | 0.00 | 0.00 | 95 | 1016.9 |
| 20260906143737 | 48 | 61 | 0.0 | 0.0 | 0.00 | 0.00 | 0.00 | 95 | 1017.0 |
| 20260906143224 | 48 | 61 | 0.0 | 0.0 | 0.00 | 0.00 | 0.00 | 95 | 1017.1 |
| 20260906142811 | 47 | 61 | 0.0 | 0.0 | 0.00 | 0.00 | 0.00 | 95 | 1017.1 |
| 20260906142739 | 47 | 61 | 0.0 | 0.0 | 0.00 | 0.00 | 0.00 | 95 | 1017.1 |
| 20260906142227 | 47 | 61 | 0.0 | 0.0 | 0.00 | 0.00 | 0.00 | 94 | 1017.0 |
| 20260906141733 | 47 | 61 | 0.0 | 0.0 | 0.00 | 0.00 | 0.00 | 94 | 1017.0 |
| 20260906141301 | 47 | 61 | 0.0 | 0.0 | 0.00 | 0.00 | 0.00 | 94 | 1017.0 |
| 20260906140720 | 47 | 61 | 0.0 | 0.0 | 0.00 | 0.00 | 0.00 | 94 | 1017.0 |
| 20260906140227 | 47 | 61 | 0.0 | 0.0 | 0.00 | 0.00 | 0.00 | 94 | 1017.1 |
| 20260906135754 | 47 | 61 | 0.0 | 0.0 | 0.00 | 0.00 | 0.00 | 94 | 1017.0 |
| 20260906135722 | 47 | 61 | 0.0 | 0.0 | 0.00 | 0.00 | 0.00 | 94 | 1017.0 |
| 20260906135230 | 47 | 61 | 0.0 | 0.0 | 0.00 | 0.00 | 0.00 | 94 | 1017.0 |
| 20260906134736 | 47 | 61 | 0.0 | 0.0 | 0.00 | 0.00 | 0.00 | 94 | 1017.0 |
| 20260906134223 | 47 | 61 | 0.0 | 0.0 | 0.00 | 0.00 | 0.00 | 93 | 1017.0 |
| 20260906133730 | 47 | 61 | 0.0 | 0.0 | 0.00 | 0.00 | 0.00 | 93 | 1016.9 |
| 20260906133237 | 47 | 61 | 0.0 | 0.0 | 0.00 | 0.00 | 0.00 | 93 | 1017.0 |
| 20260906132724 | 47 | 61 | 0.0 | 0.0 | 0.00 | 0.00 | 0.00 | 93 | 1017.0 |
| 20260906132232 | 47 | 64 | 0.0 | 0.0 | 0.00 | 0.00 | 0.00 | 93 | 1017.1 |
| 20260906131738 | 47 | 64 | 0.0 | 0.0 | 0.00 | 0.00 | 0.00 | 93 | 1017.0 |
| 20260906131229 | 48 | 64 | 0.0 | 0.0 | 0.00 | 0.00 | 0.00 | 94 | 1017.0 |
| 20260906130736 | 48 | 64 | 0.0 | 0.0 | 0.00 | 0.00 | 0.00 | 94 | 1017.1 |
| 20260906130303 | 48 | 64 | 0.0 | 0.0 | 0.00 | 0.00 | 0.00 | 94 | 1017.1 |
| 20260906125759 | 48 | 58 | 0.0 | 0.0 | 0.00 | 0.00 | 0.00 | 94 | 1017.2 |
| 20260906125235 | 48 | 58 | 0.0 | 0.0 | 0.00 | 0.00 | 0.00 | 94 | 1017.1 |
| 20260906124721 | 48 | 58 | 0.0 | 0.0 | 0.00 | 0.00 | 0.00 | 94 | 1017.1 |
| 20260906124228 | 48 | 59 | 0.0 | 0.0 | 0.00 | 0.00 | 0.00 | 94 | 1017.1 |
| 20260906123735 | 48 | 59 | 0.0 | 0.0 | 0.00 | 0.00 | 0.00 | 94 | 1017.2 |
| 20260906123301 | 48 | 68 | 0.0 | 0.0 | 0.00 | 0.00 | 0.00 | 94 | 1017.2 |
| 20260906123229 | 48 | 68 | 0.0 | 0.0 | 0.00 | 0.00 | 0.00 | 94 | 1017.2 |
| 20260906122737 | 48 | 68 | 0.0 | 0.0 | 0.00 | 0.00 | 0.00 | 94 | 1017.2 |
| 20260906122306 | 48 | 68 | 0.0 | 0.0 | 0.00 | 0.00 | 0.00 | 94 | 1017.1 |
| 20260906122233 | 48 | 68 | 0.0 | 0.0 | 0.00 | 0.00 | 0.00 | 94 | 1017.1 |
| 20260906121738 | 48 | 68 | 0.0 | 0.0 | 0.00 | 0.00 | 0.00 | 94 | 1017.1 |
| 20260906121305 | 48 | 79 | 0.0 | 0.0 | 0.00 | 0.00 | 0.00 | 94 | 1017.1 |
| 20260906121233 | 48 | 79 | 0.0 | 0.0 | 0.00 | 0.00 | 0.00 | 94 | 1017.1 |
| 20260906120801 | 48 | 78 | 0.0 | 0.0 | 0.00 | 0.00 | 0.00 | 94 | 1017.1 |
| 20260906120235 | 48 | 74 | 0.0 | 0.0 | 0.00 | 0.00 | 0.00 | 93 | 1017.1 |
| 20260906115722 | 48 | 74 | 0.0 | 0.0 | 0.00 | 0.00 | 0.00 | 93 | 1017.0 |
| 20260906115230 | 48 | 74 | 0.0 | 0.0 | 0.00 | 0.00 | 0.00 | 93 | 1017.0 |
| 20260906114236 | 48 | 74 | 0.0 | 0.0 | 0.00 | 0.00 | 0.00 | 93 | 1017.0 |
| 20260906113723 | 48 | 74 | 0.0 | 0.0 | 0.00 | 0.00 | 0.00 | 93 | 1017.0 |
| 20260906113230 | 49 | 74 | 0.0 | 0.0 | 0.00 | 0.00 | 0.00 | 93 | 1017.3 |
| 20260906112758 | 49 | 74 | 0.0 | 0.0 | 0.00 | 0.00 | 0.00 | 93 | 1017.3 |
| 20260906112234 | 49 | 74 | 0.0 | 0.0 | 0.00 | 0.00 | 0.00 | 94 | 1017.3 |
| 20260906111720 | 49 | 74 | 0.0 | 0.0 | 0.00 | 0.00 | 0.00 | 94 | 1017.2 |
| 20260906111227 | 49 | 74 | 0.0 | 0.0 | 0.00 | 0.00 | 0.00 | 94 | 1017.2 |
| 20260906110734 | 49 | 52 | 0.0 | 0.0 | 0.00 | 0.00 | 0.00 | 94 | 1017.3 |
| 20260906110301 | 49 | 52 | 0.0 | 0.0 | 0.00 | 0.00 | 0.00 | 93 | 1017.3 |
| 20260906105739 | 49 | 52 | 0.0 | 0.0 | 0.00 | 0.00 | 0.00 | 93 | 1017.2 |
| 20260906105226 | 49 | 52 | 0.0 | 0.0 | 0.00 | 0.00 | 0.00 | 93 | 1017.2 |
| 20260906104732 | 49 | 52 | 0.0 | 0.0 | 0.00 | 0.00 | 0.00 | 93 | 1017.1 |
| 20260906104300 | 49 | 52 | 0.0 | 0.0 | 0.00 | 0.00 | 0.00 | 93 | 1017.1 |
| 20260906103739 | 49 | 53 | 0.0 | 0.0 | 0.00 | 0.00 | 0.00 | 93 | 1017.2 |
| 20260906103307 | 49 | 53 | 0.0 | 0.0 | 0.00 | 0.00 | 0.00 | 93 | 1017.2 |
| 20260906102722 | 49 | 53 | 0.0 | 0.0 | 0.00 | 0.00 | 0.00 | 93 | 1017.2 |
| 20260906102310 | 49 | 57 | 0.0 | 0.0 | 0.00 | 0.00 | 0.00 | 93 | 1017.3 |
| 20260906101724 | 49 | 57 | 0.0 | 0.0 | 0.00 | 0.00 | 0.00 | 93 | 1017.2 |
| 20260906101231 | 49 | 57 | 0.0 | 0.0 | 0.00 | 0.00 | 0.00 | 93 | 1017.2 |
| 20260906100738 | 49 | 33 | 0.0 | 0.0 | 0.00 | 0.00 | 0.00 | 93 | 1017.2 |
| 20260906100225 | 49 | 33 | 0.0 | 0.0 | 0.00 | 0.00 | 0.00 | 93 | 1017.3 |
| 20260906095732 | 49 | 33 | 0.0 | 0.0 | 0.00 | 0.00 | 0.00 | 93 | 1017.3 |
| 20260906095240 | 49 | 90 | 0.0 | 0.0 | 0.00 | 0.00 | 0.00 | 93 | 1017.3 |
| 20260906094726 | 49 | 90 | 0.0 | 0.0 | 0.00 | 0.00 | 0.00 | 93 | 1017.3 |
| 20260906094254 | 50 | 90 | 0.0 | 0.0 | 0.00 | 0.00 | 0.00 | 93 | 1017.2 |
| 20260906093729 | 50 | 91 | 0.0 | 0.0 | 0.00 | 0.00 | 0.00 | 93 | 1017.1 |
| 20260906093239 | 50 | 90 | 0.0 | 0.0 | 0.00 | 0.00 | 0.00 | 92 | 1017.2 |
| 20260906092726 | 50 | 90 | 0.0 | 0.0 | 0.00 | 0.00 | 0.00 | 92 | 1017.2 |
| 20260906092235 | 50 | 90 | 0.0 | 0.0 | 0.00 | 0.00 | 0.00 | 92 | 1017.1 |
| 20260906091740 | 50 | 90 | 0.0 | 0.0 | 0.00 | 0.00 | 0.00 | 93 | 1017.1 |
| 20260906091222 | 50 | 90 | 0.0 | 0.0 | 0.00 | 0.00 | 0.00 | 93 | 1017.1 |
| 20260906090729 | 50 | 90 | 0.0 | 0.0 | 0.00 | 0.00 | 0.00 | 93 | 1017.1 |
| 20260906090236 | 50 | 90 | 0.0 | 0.0 | 0.00 | 0.00 | 0.00 | 93 | 1017.2 |
| 20260906085722 | 50 | 90 | 0.0 | 0.0 | 0.00 | 0.00 | 0.00 | 93 | 1017.1 |
| 20260906085230 | 50 | 90 | 0.0 | 0.0 | 0.00 | 0.00 | 0.00 | 93 | 1017.2 |
| 20260906084736 | 50 | 90 | 0.0 | 0.0 | 0.00 | 0.00 | 0.00 | 92 | 1017.2 |
| 20260906084226 | 50 | 90 | 0.0 | 0.0 | 0.00 | 0.00 | 0.00 | 92 | 1017.1 |
| 20260906083733 | 50 | 90 | 0.0 | 0.0 | 0.00 | 0.00 | 0.00 | 93 | 1017.2 |
| 20260906083300 | 50 | 90 | 0.0 | 0.0 | 0.00 | 0.00 | 0.00 | 92 | 1017.3 |
| 20260906082735 | 51 | 90 | 0.0 | 0.0 | 0.00 | 0.00 | 0.00 | 92 | 1017.3 |
| 20260906082223 | 51 | 90 | 0.0 | 0.0 | 0.00 | 0.00 | 0.00 | 92 | 1017.4 |
| 20260906081729 | 51 | 90 | 0.0 | 0.0 | 0.00 | 0.00 | 0.00 | 92 | 1017.3 |
| 20260906081236 | 51 | 90 | 0.0 | 0.0 | 0.00 | 0.00 | 0.00 | 92 | 1017.3 |
| 20260906080723 | 51 | 90 | 0.0 | 0.0 | 0.00 | 0.00 | 0.00 | 92 | 1017.3 |
| 20260906080310 | 51 | 90 | 0.0 | 0.0 | 0.00 | 0.00 | 0.00 | 92 | 1017.2 |
| 20260906075724 | 51 | 90 | 0.0 | 0.0 | 0.00 | 0.00 | 0.00 | 92 | 1017.2 |
| 20260906075312 | 51 | 90 | 0.0 | 0.0 | 0.00 | 0.00 | 0.00 | 92 | 1017.2 |
| 20260906074726 | 51 | 90 | 0.0 | 0.0 | 0.00 | 0.00 | 0.00 | 92 | 1017.3 |
| 20260906074233 | 51 | 90 | 0.0 | 0.0 | 0.00 | 0.00 | 0.00 | 92 | 1017.4 |
| 20260906073745 | 51 | 90 | 0.0 | 0.0 | 0.00 | 0.00 | 0.00 | 92 | 1017.3 |
| 20260906073307 | 51 | 90 | 0.0 | 0.0 | 0.00 | 0.00 | 0.00 | 92 | 1017.3 |
| 20260906072722 | 52 | 90 | 0.0 | 0.0 | 0.00 | 0.00 | 0.00 | 91 | 1017.3 |
| 20260906072310 | 52 | 90 | 0.0 | 0.0 | 0.00 | 0.00 | 0.00 | 91 | 1017.5 |
| 20260906072238 | 52 | 90 | 0.0 | 0.0 | 0.00 | 0.00 | 0.00 | 91 | 1017.5 |
| 20260906071724 | 52 | 90 | 0.0 | 0.0 | 0.00 | 0.00 | 0.00 | 91 | 1017.6 |
| 20260906071311 | 52 | 90 | 0.0 | 0.0 | 0.00 | 0.00 | 0.00 | 91 | 1017.5 |
| 20260906071239 | 52 | 90 | 0.0 | 0.0 | 0.00 | 0.00 | 0.00 | 91 | 1017.5 |
| 20260906070806 | 52 | 90 | 0.0 | 0.0 | 0.00 | 0.00 | 0.00 | 91 | 1017.5 |
| 20260906070734 | 52 | 90 | 0.0 | 0.0 | 0.00 | 0.00 | 0.00 | 91 | 1017.5 |
| 20260906070221 | 52 | 90 | 0.0 | 0.0 | 0.00 | 0.00 | 0.00 | 91 | 1017.6 |
| 20260906065728 | 52 | 90 | 0.0 | 0.0 | 0.00 | 0.00 | 0.00 | 91 | 1017.7 |
| 20260906065236 | 52 | 90 | 0.0 | 0.0 | 0.00 | 0.00 | 0.00 | 91 | 1017.7 |
| 20260906064722 | 53 | 90 | 0.0 | 0.0 | 0.00 | 0.00 | 0.00 | 91 | 1017.7 |
| 20260906064309 | 53 | 90 | 0.0 | 0.0 | 0.00 | 0.00 | 0.00 | 91 | 1017.5 |
| 20260906064237 | 53 | 90 | 0.0 | 0.0 | 0.00 | 0.00 | 0.00 | 91 | 1017.5 |
| 20260906063724 | 53 | 90 | 0.0 | 0.0 | 0.00 | 0.00 | 0.00 | 91 | 1017.7 |
| 20260906063231 | 53 | 90 | 0.0 | 0.0 | 0.00 | 0.00 | 0.00 | 90 | 1017.6 |
| 20260906062738 | 53 | 90 | 0.0 | 0.0 | 0.00 | 0.00 | 0.00 | 89 | 1017.6 |
| 20260906062230 | 53 | 90 | 0.0 | 0.0 | 0.00 | 0.00 | 0.00 | 89 | 1017.7 |
| 20260906061757 | 53 | 90 | 0.0 | 0.0 | 0.00 | 0.00 | 0.00 | 89 | 1017.6 |
| 20260906061232 | 53 | 90 | 0.0 | 0.0 | 0.00 | 0.00 | 0.00 | 89 | 1017.6 |
| 20260906060738 | 53 | 90 | 0.0 | 0.0 | 0.00 | 0.00 | 0.00 | 89 | 1017.7 |
| 20260906060225 | 53 | 59 | 0.0 | 0.0 | 0.00 | 0.00 | 0.00 | 89 | 1017.7 |
| 20260906055732 | 53 | 59 | 0.0 | 0.0 | 0.00 | 0.00 | 0.00 | 88 | 1017.6 |
| 20260906055240 | 54 | 59 | 0.0 | 0.0 | 0.00 | 0.00 | 0.00 | 88 | 1017.5 |
| 20260906054726 | 54 | 59 | 0.0 | 0.0 | 0.00 | 0.00 | 0.00 | 88 | 1017.7 |
| 20260906054233 | 54 | 59 | 0.0 | 0.0 | 0.00 | 0.00 | 0.00 | 87 | 1017.7 |
| 20260906053720 | 54 | 284 | 0.0 | 0.0 | 0.00 | 0.00 | 0.00 | 87 | 1017.7 |
| 20260906053227 | 55 | 284 | 0.0 | 0.0 | 0.00 | 0.00 | 0.00 | 87 | 1017.7 |
| 20260906052754 | 55 | 284 | 0.0 | 0.0 | 0.00 | 0.00 | 0.00 | 87 | 1017.8 |
| 20260906052234 | 55 | 284 | 0.0 | 0.0 | 0.00 | 0.00 | 0.00 | 88 | 1017.7 |
| 20260906051720 | 55 | 283 | 0.0 | 0.0 | 0.00 | 0.00 | 0.00 | 87 | 1017.9 |
| 20260906051307 | 55 | 284 | 0.0 | 0.0 | 0.00 | 0.00 | 0.00 | 87 | 1017.9 |
| 20260906050722 | 55 | 284 | 0.0 | 0.0 | 0.00 | 0.00 | 0.00 | 86 | 1018.0 |
| 20260906050229 | 55 | 284 | 0.0 | 0.0 | 0.00 | 0.00 | 0.00 | 86 | 1017.9 |
| 20260906045737 | 55 | 284 | 0.0 | 0.0 | 0.00 | 0.00 | 0.00 | 85 | 1018.0 |
| 20260906045224 | 56 | 284 | 0.0 | 0.0 | 0.00 | 0.00 | 0.00 | 85 | 1018.0 |
| 20260906044730 | 56 | 284 | 0.0 | 0.0 | 0.00 | 0.00 | 0.00 | 84 | 1018.0 |
| 20260906044237 | 56 | 284 | 0.0 | 0.0 | 0.00 | 0.00 | 0.00 | 84 | 1018.1 |
| 20260906043724 | 56 | 284 | 0.0 | 0.0 | 0.00 | 0.00 | 0.00 | 84 | 1018.0 |
| 20260906043232 | 56 | 283 | 0.0 | 0.0 | 0.00 | 0.00 | 0.00 | 83 | 1018.0 |
| 20260906042722 | 57 | 283 | 0.0 | 0.0 | 0.00 | 0.00 | 0.00 | 83 | 1018.1 |
| 20260906042230 | 57 | 284 | 0.0 | 0.0 | 0.00 | 0.00 | 0.00 | 82 | 1018.1 |
| 20260906041737 | 57 | 284 | 0.0 | 0.0 | 0.00 | 0.00 | 0.00 | 82 | 1018.1 |
| 20260906041223 | 57 | 284 | 0.0 | 0.0 | 0.00 | 0.00 | 0.00 | 81 | 1018.2 |
| 20260906040810 | 58 | 284 | 0.0 | 0.0 | 0.00 | 0.00 | 0.00 | 81 | 1018.2 |
| 20260906040738 | 58 | 284 | 0.0 | 0.0 | 0.00 | 0.00 | 0.00 | 81 | 1018.2 |
| 20260906040305 | 58 | 284 | 0.0 | 0.0 | 0.00 | 0.00 | 0.00 | 81 | 1018.2 |
| 20260906040234 | 58 | 284 | 0.0 | 0.0 | 0.00 | 0.00 | 0.00 | 81 | 1018.2 |
| 20260906035720 | 58 | 284 | 0.0 | 0.0 | 0.00 | 0.00 | 0.00 | 80 | 1018.2 |
| 20260906035228 | 58 | 284 | 0.0 | 0.0 | 0.00 | 0.00 | 0.00 | 80 | 1018.3 |
| 20260906034733 | 58 | 284 | 0.0 | 0.0 | 0.00 | 0.00 | 0.00 | 79 | 1018.2 |
| 20260906034220 | 59 | 284 | 0.0 | 0.0 | 0.00 | 0.00 | 0.00 | 78 | 1018.2 |
| 20260906033727 | 59 | 284 | 0.0 | 0.0 | 0.00 | 0.00 | 0.00 | 77 | 1018.1 |
| 20260906033254 | 59 | 284 | 0.0 | 0.0 | 0.00 | 0.00 | 0.00 | 77 | 1018.0 |
| 20260906033222 | 59 | 284 | 0.0 | 0.0 | 0.00 | 0.00 | 0.00 | 77 | 1018.0 |
| 20260906032729 | 60 | 284 | 0.0 | 0.0 | 0.00 | 0.00 | 0.00 | 76 | 1018.0 |
| 20260906032240 | 60 | 284 | 0.0 | 0.0 | 0.00 | 0.00 | 0.00 | 76 | 1018.0 |
| 20260906031726 | 60 | 284 | 0.0 | 0.0 | 0.00 | 0.00 | 0.00 | 76 | 1017.9 |
| 20260906031233 | 61 | 284 | 0.0 | 0.0 | 0.00 | 0.00 | 0.00 | 75 | 1017.7 |
| 20260906030800 | 61 | 284 | 0.0 | 0.0 | 0.00 | 0.00 | 0.00 | 74 | 1017.7 |
| 20260906030728 | 61 | 284 | 0.0 | 0.0 | 0.00 | 0.00 | 0.00 | 74 | 1017.7 |
| 20260906030235 | 61 | 284 | 0.0 | 0.0 | 0.00 | 0.00 | 0.00 | 73 | 1017.6 |
| 20260906025722 | 62 | 284 | 0.0 | 0.0 | 0.00 | 0.00 | 0.00 | 72 | 1017.6 |
| 20260906025230 | 62 | 283 | 0.0 | 0.0 | 0.00 | 0.00 | 0.00 | 70 | 1017.7 |
| 20260906024303 | 63 | 284 | 0.0 | 0.0 | 0.00 | 0.00 | 0.00 | 70 | 1017.7 |
| 20260906023740 | 63 | 284 | 0.0 | 0.0 | 0.00 | 0.00 | 0.00 | 69 | 1017.8 |
| 20260906023221 | 63 | 284 | 0.0 | 0.0 | 0.00 | 0.00 | 0.00 | 67 | 1017.8 |
| 20260906022809 | 64 | 284 | 0.0 | 0.0 | 0.00 | 0.00 | 0.00 | 66 | 1017.7 |
| 20260906022225 | 64 | 284 | 0.0 | 0.0 | 0.00 | 0.00 | 0.00 | 66 | 1017.6 |
| 20260906021735 | 64 | 284 | 0.0 | 0.0 | 0.00 | 0.00 | 0.00 | 65 | 1017.5 |
| 20260906021302 | 65 | 284 | 0.0 | 0.0 | 0.00 | 0.00 | 0.00 | 65 | 1017.6 |
| 20260906021230 | 65 | 284 | 0.0 | 0.0 | 0.00 | 0.00 | 0.00 | 65 | 1017.6 |
| 20260906020732 | 65 | 284 | 0.0 | 0.0 | 0.00 | 0.00 | 0.00 | 62 | 1017.7 |
| 20260906020259 | 65 | 277 | 0.0 | 0.0 | 0.00 | 0.00 | 0.00 | 63 | 1017.7 |
| 20260906020227 | 65 | 277 | 0.0 | 0.0 | 0.00 | 0.00 | 0.00 | 63 | 1017.7 |
| 20260906015734 | 66 | 277 | 0.0 | 0.0 | 0.00 | 0.00 | 0.00 | 61 | 1017.6 |
| 20260906015240 | 66 | 277 | 0.0 | 0.0 | 0.00 | 0.00 | 0.00 | 60 | 1017.7 |
| 20260906014726 | 67 | 277 | 0.0 | 1.7 | 0.00 | 0.00 | 0.00 | 59 | 1017.7 |
| 20260906014233 | 67 | 277 | 0.9 | 1.7 | 0.00 | 0.00 | 0.00 | 58 | 1017.8 |
| 20260906013800 | 68 | 277 | 0.0 | 0.0 | 0.00 | 0.00 | 0.00 | 56 | 1017.8 |
| 20260906013728 | 68 | 277 | 0.0 | 0.0 | 0.00 | 0.00 | 0.00 | 56 | 1017.8 |
| 20260906013235 | 68 | 277 | 0.0 | 0.9 | 0.00 | 0.00 | 0.00 | 57 | 1017.6 |
| 20260906012722 | 68 | 277 | 0.0 | 0.9 | 0.00 | 0.00 | 0.00 | 57 | 1017.7 |
| 20260906012231 | 69 | 277 | 0.9 | 1.7 | 0.00 | 0.00 | 0.00 | 55 | 1017.7 |
| 20260906011757 | 69 | 287 | 0.0 | 1.7 | 0.00 | 0.00 | 0.00 | 55 | 1017.6 |
| 20260906011725 | 69 | 287 | 0.0 | 1.7 | 0.00 | 0.00 | 0.00 | 55 | 1017.6 |
| 20260906011252 | 70 | 234 | 0.0 | 1.7 | 0.00 | 0.00 | 0.00 | 54 | 1017.5 |
| 20260906010728 | 71 | 232 | 0.0 | 1.7 | 0.00 | 0.00 | 0.00 | 51 | 1017.5 |
| 20260906010235 | 71 | 202 | 0.9 | 1.7 | 0.00 | 0.00 | 0.00 | 51 | 1017.5 |
| 20260906005726 | 70 | 239 | 0.0 | 1.7 | 0.00 | 0.00 | 0.00 | 53 | 1017.5 |
| 20260906005254 | 71 | 242 | 0.9 | 1.7 | 0.00 | 0.00 | 0.00 | 52 | 1017.5 |
| 20260906004728 | 70 | 333 | 0.9 | 2.6 | 0.00 | 0.00 | 0.00 | 53 | 1017.5 |
| 20260906004235 | 70 | 300 | 0.0 | 2.6 | 0.00 | 0.00 | 0.00 | 53 | 1017.5 |
| 20260906003802 | 69 | 26 | 0.9 | 1.7 | 0.00 | 0.00 | 0.00 | 54 | 1017.6 |
| 20260906003730 | 69 | 26 | 0.9 | 1.7 | 0.00 | 0.00 | 0.00 | 54 | 1017.6 |
| 20260906003237 | 68 | 317 | 0.9 | 1.7 | 0.00 | 0.00 | 0.00 | 56 | 1017.5 |
| 20260906002724 | 68 | 217 | 0.0 | 1.7 | 0.00 | 0.00 | 0.00 | 57 | 1017.5 |
| 20260906002232 | 68 | 264 | 0.0 | 1.7 | 0.00 | 0.00 | 0.00 | 56 | 1017.5 |
| 20260906001738 | 68 | 263 | 0.0 | 2.6 | 0.00 | 0.00 | 0.00 | 56 | 1017.4 |
| 20260906001225 | 68 | 355 | 0.9 | 2.6 | 0.00 | 0.00 | 0.00 | 57 | 1017.5 |
| 20260906000732 | 68 | 172 | 0.9 | 2.6 | 0.00 | 0.00 | 0.00 | 56 | 1017.4 |
| 20260906000256 | 68 | 99 | 0.9 | 2.6 | 0.00 | 0.00 | 0.00 | 56 | 1017.6 |
| 20260906000222 | 68 | 99 | 0.9 | 2.6 | 0.00 | 0.00 | 0.00 | 56 | 1017.6 |
| 20260905235729 | 68 | 106 | 0.0 | 1.7 | 0.00 | 0.00 | 0.00 | 57 | 1017.6 |
| 20260905235221 | 69 | 106 | 0.9 | 1.7 | 0.00 | 0.00 | 0.00 | 55 | 1017.6 |
| 20260905234807 | 68 | 348 | 0.0 | 1.7 | 0.00 | 0.00 | 0.00 | 57 | 1017.7 |
| 20260905234222 | 68 | 81 | 0.0 | 1.7 | 0.00 | 0.00 | 0.00 | 57 | 1017.7 |
| 20260905233809 | 68 | 55 | 0.9 | 1.7 | 0.00 | 0.00 | 0.00 | 57 | 1017.7 |
| 20260905233305 | 68 | 149 | 0.9 | 1.7 | 0.00 | 0.00 | 0.00 | 55 | 1017.8 |
| 20260905232720 | 68 | 164 | 0.0 | 1.7 | 0.00 | 0.00 | 0.00 | 55 | 1017.7 |
| 20260905232228 | 68 | 196 | 0.9 | 2.6 | 0.00 | 0.00 | 0.00 | 55 | 1017.7 |
| 20260905231754 | 68 | 202 | 0.9 | 2.6 | 0.00 | 0.01 | 0.00 | 55 | 1017.6 |
| 20260905231230 | 69 | 173 | 0.9 | 2.6 | 0.00 | 0.01 | 0.00 | 55 | 1017.7 |
| 20260905230737 | 68 | 310 | 0.9 | 2.6 | 0.00 | 0.01 | 0.00 | 53 | 1017.8 |
| 20260905230224 | 68 | 93 | 0.9 | 4.3 | 0.00 | 0.01 | 0.00 | 53 | 1018.0 |
| 20260905225731 | 68 | 93 | 1.7 | 4.3 | 0.00 | 0.01 | 0.00 | 54 | 1017.9 |
| 20260905225240 | 68 | 330 | 1.7 | 4.3 | 0.00 | 0.01 | 0.00 | 54 | 1017.9 |
| 20260905224725 | 67 | 70 | 0.9 | 2.6 | 0.00 | 0.01 | 0.00 | 55 | 1018.0 |
| 20260905224236 | 67 | 131 | 0.9 | 2.6 | 0.00 | 0.01 | 0.00 | 57 | 1018.1 |
| 20260905223723 | 67 | 140 | 0.0 | 2.6 | 0.00 | 0.01 | 0.00 | 58 | 1018.1 |
| 20260905223311 | 66 | 95 | 0.9 | 3.5 | 0.00 | 0.01 | 0.00 | 59 | 1018.0 |
| 20260905223239 | 66 | 95 | 0.9 | 3.5 | 0.00 | 0.01 | 0.00 | 59 | 1018.0 |
| 20260905222726 | 66 | 84 | 0.9 | 3.5 | 0.00 | 0.01 | 0.00 | 60 | 1018.1 |
| 20260905222234 | 65 | 38 | 0.9 | 3.5 | 0.00 | 0.01 | 0.00 | 60 | 1018.2 |
| 20260905221800 | 65 | 80 | 1.7 | 3.5 | 0.00 | 0.01 | 0.00 | 62 | 1018.2 |
| 20260905221235 | 65 | 53 | 2.6 | 3.5 | 0.00 | 0.01 | 0.00 | 61 | 1018.3 |
| 20260905220722 | 64 | 63 | 0.9 | 1.7 | 0.00 | 0.01 | 0.00 | 64 | 1018.4 |
| 20260905220229 | 64 | 167 | 0.0 | 1.7 | 0.00 | 0.01 | 0.00 | 64 | 1018.5 |
| 20260905215736 | 63 | 191 | 0.0 | 1.7 | 0.00 | 0.01 | 0.00 | 66 | 1018.7 |
| 20260905215224 | 63 | 96 | 0.9 | 1.7 | 0.00 | 0.01 | 0.00 | 65 | 1018.7 |
| 20260905214730 | 63 | 18 | 0.0 | 1.7 | 0.00 | 0.01 | 0.00 | 66 | 1018.7 |
| 20260905214221 | 63 | 119 | 0.9 | 2.6 | 0.00 | 0.01 | 0.00 | 67 | 1018.7 |
| 20260905213728 | 63 | 130 | 0.9 | 2.6 | 0.00 | 0.01 | 0.00 | 66 | 1018.7 |
| 20260905213234 | 62 | 113 | 0.9 | 2.6 | 0.00 | 0.01 | 0.00 | 67 | 1018.7 |
| 20260905212721 | 62 | 105 | 0.9 | 2.6 | 0.00 | 0.01 | 0.00 | 66 | 1018.7 |
| 20260905212229 | 62 | 124 | 0.9 | 3.5 | 0.00 | 0.01 | 0.00 | 68 | 1018.6 |
| 20260905211735 | 62 | 203 | 0.0 | 3.5 | 0.00 | 0.01 | 0.00 | 69 | 1018.7 |
| 20260905211222 | 62 | 93 | 1.7 | 3.5 | 0.00 | 0.01 | 0.00 | 69 | 1018.6 |
| 20260905210809 | 62 | 72 | 0.9 | 2.6 | 0.00 | 0.01 | 0.00 | 70 | 1018.6 |
| 20260905210224 | 62 | 104 | 0.9 | 2.6 | 0.00 | 0.01 | 0.00 | 71 | 1018.7 |
| 20260905205731 | 61 | 100 | 0.9 | 2.6 | 0.00 | 0.01 | 0.00 | 71 | 1018.8 |
| 20260905205222 | 61 | 94 | 1.7 | 2.6 | 0.00 | 0.01 | 0.00 | 72 | 1018.8 |
| 20260905204728 | 61 | 67 | 0.9 | 1.7 | 0.00 | 0.01 | 0.00 | 72 | 1018.8 |
| 20260905204235 | 61 | 95 | 0.9 | 1.7 | 0.00 | 0.01 | 0.00 | 73 | 1018.8 |
| 20260905203802 | 61 | 107 | 0.9 | 1.7 | 0.00 | 0.01 | 0.00 | 73 | 1018.8 |
| 20260905203237 | 61 | 67 | 0.9 | 2.6 | 0.00 | 0.01 | 0.00 | 74 | 1018.8 |
| 20260905202724 | 61 | 92 | 0.9 | 3.5 | 0.00 | 0.01 | 0.00 | 74 | 1018.8 |
| 20260905202313 | 61 | 88 | 0.9 | 3.5 | 0.00 | 0.01 | 0.00 | 74 | 1018.9 |
| 20260905202241 | 61 | 88 | 0.9 | 3.5 | 0.00 | 0.01 | 0.00 | 74 | 1018.9 |
| 20260905201807 | 60 | 74 | 0.9 | 3.5 | 0.00 | 0.01 | 0.00 | 74 | 1018.9 |
| 20260905201222 | 60 | 68 | 0.9 | 3.5 | 0.00 | 0.01 | 0.00 | 73 | 1018.9 |
| 20260905200808 | 60 | 103 | 1.7 | 3.5 | 0.00 | 0.01 | 0.00 | 73 | 1019.0 |
| 20260905200736 | 60 | 103 | 1.7 | 3.5 | 0.00 | 0.01 | 0.00 | 73 | 1019.0 |
| 20260905200223 | 61 | 126 | 2.6 | 3.5 | 0.00 | 0.01 | 0.00 | 73 | 1019.0 |
| 20260905195730 | 61 | 65 | 0.9 | 1.7 | 0.00 | 0.01 | 0.00 | 73 | 1019.0 |
| 20260905195238 | 61 | 65 | 0.9 | 1.7 | 0.00 | 0.01 | 0.00 | 73 | 1019.0 |
| 20260905194724 | 61 | 119 | 0.9 | 1.7 | 0.00 | 0.01 | 0.00 | 72 | 1019.0 |
| 20260905194230 | 61 | 88 | 0.0 | 2.6 | 0.00 | 0.01 | 0.00 | 71 | 1019.0 |
| 20260905193736 | 61 | 79 | 1.7 | 2.6 | 0.00 | 0.01 | 0.00 | 70 | 1019.1 |
| 20260905193223 | 62 | 70 | 0.9 | 1.7 | 0.00 | 0.01 | 0.00 | 69 | 1019.0 |
| 20260905192730 | 62 | 108 | 0.9 | 1.7 | 0.00 | 0.01 | 0.00 | 68 | 1019.2 |
| 20260905192258 | 62 | 76 | 0.0 | 1.7 | 0.00 | 0.01 | 0.00 | 70 | 1019.2 |
| 20260905192226 | 62 | 76 | 0.0 | 1.7 | 0.00 | 0.01 | 0.00 | 70 | 1019.2 |
| 20260905191732 | 61 | 185 | 0.0 | 1.7 | 0.00 | 0.01 | 0.00 | 70 | 1019.2 |
| 20260905191239 | 61 | 117 | 0.0 | 1.7 | 0.00 | 0.01 | 0.00 | 69 | 1019.3 |
| 20260905190726 | 61 | 77 | 0.0 | 1.7 | 0.00 | 0.01 | 0.00 | 70 | 1019.2 |
| 20260905190253 | 61 | 93 | 0.9 | 1.7 | 0.00 | 0.01 | 0.00 | 70 | 1019.3 |
| 20260905190221 | 61 | 93 | 0.9 | 1.7 | 0.00 | 0.01 | 0.00 | 70 | 1019.3 |
| 20260905185728 | 61 | 331 | 0.0 | 4.3 | 0.00 | 0.01 | 0.00 | 69 | 1019.2 |
| 20260905185236 | 61 | 103 | 1.7 | 3.5 | 0.00 | 0.01 | 0.00 | 71 | 1019.2 |
| 20260905184722 | 61 | 205 | 1.7 | 3.5 | 0.00 | 0.01 | 0.00 | 72 | 1019.3 |
| 20260905184229 | 61 | 80 | 0.9 | 2.6 | 0.00 | 0.01 | 0.00 | 72 | 1019.3 |
| 20260905183756 | 61 | 123 | 0.9 | 3.5 | 0.00 | 0.01 | 0.00 | 74 | 1019.4 |
| 20260905183252 | 61 | 163 | 0.0 | 3.5 | 0.00 | 0.01 | 0.00 | 73 | 1019.4 |
| 20260905183220 | 61 | 163 | 0.0 | 3.5 | 0.00 | 0.01 | 0.00 | 73 | 1019.4 |
| 20260905182731 | 60 | 85 | 0.9 | 3.5 | 0.00 | 0.01 | 0.00 | 73 | 1019.4 |
| 20260905182238 | 60 | 74 | 0.9 | 3.5 | 0.00 | 0.01 | 0.00 | 72 | 1019.5 |
| 20260905181724 | 60 | 109 | 2.6 | 3.5 | 0.00 | 0.01 | 0.00 | 72 | 1019.5 |
| 20260905181231 | 60 | 166 | 0.0 | 1.7 | 0.00 | 0.01 | 0.00 | 73 | 1019.6 |
| 20260905180738 | 60 | 128 | 0.0 | 1.7 | 0.00 | 0.01 | 0.00 | 73 | 1019.5 |
| 20260905180225 | 60 | 126 | 0.0 | 2.6 | 0.00 | 0.01 | 0.00 | 73 | 1019.6 |
| 20260905175732 | 60 | 92 | 1.7 | 2.6 | 0.00 | 0.01 | 0.00 | 74 | 1019.6 |
| 20260905175240 | 60 | 82 | 0.9 | 1.7 | 0.00 | 0.01 | 0.00 | 74 | 1019.6 |
| 20260905174726 | 59 | 98 | 0.9 | 2.6 | 0.00 | 0.01 | 0.00 | 74 | 1019.6 |
| 20260905174233 | 59 | 101 | 1.7 | 2.6 | 0.00 | 0.01 | 0.00 | 74 | 1019.6 |
| 20260905173724 | 59 | 95 | 0.9 | 2.6 | 0.00 | 0.01 | 0.00 | 75 | 1019.5 |
| 20260905173231 | 59 | 60 | 0.9 | 2.6 | 0.00 | 0.01 | 0.00 | 74 | 1019.5 |
| 20260905172758 | 59 | 106 | 0.9 | 2.6 | 0.00 | 0.01 | 0.00 | 74 | 1019.4 |
| 20260905172234 | 58 | 81 | 0.9 | 2.6 | 0.00 | 0.01 | 0.00 | 75 | 1019.4 |
| 20260905171720 | 58 | 108 | 0.9 | 2.6 | 0.00 | 0.02 | 0.00 | 75 | 1019.4 |
| 20260905171227 | 58 | 105 | 2.6 | 2.6 | 0.00 | 0.02 | 0.00 | 74 | 1019.3 |
| 20260905170734 | 58 | 144 | 0.9 | 3.5 | 0.00 | 0.02 | 0.00 | 74 | 1019.4 |
| 20260905170221 | 59 | 107 | 1.7 | 3.5 | 0.00 | 0.02 | 0.00 | 75 | 1019.4 |
| 20260905165728 | 59 | 117 | 1.7 | 3.5 | 0.00 | 0.02 | 0.00 | 76 | 1019.4 |
| 20260905165237 | 59 | 104 | 1.7 | 5.2 | 0.00 | 0.02 | 0.00 | 75 | 1019.4 |
| 20260905164803 | 59 | 118 | 1.7 | 4.3 | 0.00 | 0.02 | 0.00 | 76 | 1019.2 |
| 20260905164259 | 59 | 77 | 2.6 | 5.2 | 0.00 | 0.02 | 0.00 | 74 | 1019.3 |
| 20260905163734 | 60 | 109 | 1.7 | 3.5 | 0.00 | 0.02 | 0.00 | 74 | 1019.3 |
| 20260905163300 | 60 | 84 | 0.9 | 1.7 | 0.00 | 0.02 | 0.00 | 74 | 1019.3 |
| 20260905162755 | 60 | 65 | 0.9 | 3.5 | 0.00 | 0.02 | 0.00 | 74 | 1019.2 |
| 20260905162253 | 60 | 101 | 1.7 | 3.5 | 0.00 | 0.02 | 0.00 | 73 | 1019.3 |
| 20260905161731 | 60 | 105 | 1.7 | 4.3 | 0.00 | 0.02 | 0.00 | 73 | 1019.1 |
| 20260905161238 | 60 | 128 | 0.9 | 4.3 | 0.00 | 0.02 | 0.00 | 73 | 1019.1 |
| 20260905160725 | 60 | 130 | 0.9 | 3.5 | 0.00 | 0.02 | 0.00 | 73 | 1019.0 |
| 20260905160232 | 60 | 122 | 1.7 | 3.5 | 0.00 | 0.02 | 0.00 | 73 | 1019.1 |
| 20260905155739 | 60 | 113 | 0.9 | 2.6 | 0.00 | 0.02 | 0.00 | 74 | 1019.0 |
| 20260905155306 | 60 | 118 | 0.9 | 1.7 | 0.00 | 0.02 | 0.00 | 75 | 1019.1 |
| 20260905155235 | 60 | 118 | 0.9 | 1.7 | 0.00 | 0.02 | 0.00 | 75 | 1019.1 |
| 20260905154739 | 59 | 227 | 0.9 | 1.7 | 0.00 | 0.02 | 0.00 | 75 | 1019.1 |
| 20260905154226 | 59 | 138 | 0.9 | 1.7 | 0.00 | 0.02 | 0.00 | 75 | 1019.1 |
| 20260905153733 | 59 | 155 | 0.9 | 1.7 | 0.00 | 0.02 | 0.00 | 77 | 1019.0 |
| 20260905153259 | 58 | 11 | 0.0 | 1.7 | 0.00 | 0.02 | 0.00 | 81 | 1019.1 |